Find Kuiper-00080

NORAD ID: 64827 Int'l Des: 2025-151 Owner: KUIP Country: US Constellation: kuiper operational
LEOCIRCULAR

リアルタイム位置

3D地球を読み込み中...

Kuiper-00080について

説明を読み込み中...

次回通過

Passes for default location (London). Set your location on the main map for personalized predictions.

高度履歴

Loading altitude history...

軌道要素

1 64827U 25151M 26106.40797420 .00001598 00000-0 23857-3 0 9990
2 64827 51.8984 133.7770 0000389 78.8116 281.2890 14.79927618 40898
Epoch: Apr 16, 2026 • Age: 23 hours

現在のステータス

高度 632.1 km
速度 7.55 km/s
衛星直下点 36.36°N, 67.14°W
打ち上げ日 Jul 16, 2025
運用期間 0.7 years
タイプ internet

技術仕様

分類 Payload
質量 490.00 kg
乾燥質量 490.00 kg
総質量 490.00 kg
長さ 1.80 m
直径 0.70 m
スパン 5.00 m
形状 Box + 2 pan
製造者 KUIP
バスタイプ Kuiper
フェーズステータス In Orbit
所有者/国 KUIP/US

Most Searched